Location: M?digepalle
(16.1753°N, 80.3496°E)
Time: 07:51:00
(UTC+00:00)

Hubble Space Telescope - Pass Details

Date: 29 October 2020
Orbit: 536 x 540 km, 28.5° (Epoch: 27 November)

Event Time Altitude Azimuth Distance (km) Brightness Sun altitude
Rises 12:33:44 0° 289° (WNW) 2,664 5.4 -6.5°
Reaches altitude 10° 12:36:01 10° 285° (WNW) 1,774 4.6 -7.0°
Maximum altitude 12:40:01 53° 208° (SSW) 653 1.5 -7.9°
Drops below altitude 10° 12:44:02 10° 130° (SE) 1,774 3.1 -8.9°
Enters shadow 12:45:49 - 126° (SE) 2,464 3.7 -9.3°
